TimePDT,TemperatureF,Dew PointF,Humidity,Sea Level PressureIn,VisibilityMPH,Wind Direction,Wind SpeedMPH,Gust SpeedMPH,PrecipitationIn,Events,Conditions,WindDirDegrees,DateUTC
12:56 AM,57.0,12.0,17,29.88,10.0,Calm,Calm,-,N/A,,Clear,0,2013-03-25 07:56:00
1:56 AM,55.9,12.9,18,29.88,10.0,SSW,3.5,-,N/A,,Clear,200,2013-03-25 08:56:00
2:56 AM,53.1,12.9,20,29.88,10.0,West,4.6,-,N/A,,Clear,260,2013-03-25 09:56:00
3:56 AM,54.0,12.0,19,29.88,10.0,WSW,9.2,-,N/A,,Clear,250,2013-03-25 10:56:00
4:56 AM,52.0,12.9,21,29.89,10.0,West,3.5,-,N/A,,Clear,260,2013-03-25 11:56:00
5:56 AM,51.1,12.9,22,29.91,10.0,Calm,Calm,-,N/A,,Clear,0,2013-03-25 12:56:00
6:56 AM,50.0,12.9,23,29.94,10.0,WSW,4.6,-,N/A,,Clear,250,2013-03-25 13:56:00
7:56 AM,57.9,15.1,19,29.96,10.0,SSW,3.5,-,N/A,,Clear,210,2013-03-25 14:56:00
8:56 AM,62.1,17.1,18,29.97,10.0,Calm,Calm,-,N/A,,Clear,0,2013-03-25 15:56:00
9:56 AM,66.9,15.1,14,29.97,10.0,NNE,6.9,-,N/A,,Clear,30,2013-03-25 16:56:00
10:56 AM,70.0,16.0,13,29.96,10.0,North,4.6,-,N/A,,Clear,350,2013-03-25 17:56:00
11:56 AM,73.9,18.0,12,29.95,10.0,ENE,4.6,-,N/A,,Clear,60,2013-03-25 18:56:00
12:56 PM,75.9,16.0,10,29.91,10.0,Calm,Calm,-,N/A,,Clear,0,2013-03-25 19:56:00
1:56 PM,81.0,15.1,8,29.87,10.0,NE,5.8,-,N/A,,Clear,50,2013-03-25 20:56:00
2:56 PM,82.0,15.1,8,29.84,10.0,ESE,4.6,-,N/A,,Clear,110,2013-03-25 21:56:00
3:56 PM,82.9,12.9,7,29.82,10.0,East,4.6,-,N/A,,Clear,80,2013-03-25 22:56:00
4:56 PM,82.9,12.9,7,29.80,10.0,East,9.2,-,N/A,,Clear,100,2013-03-25 23:56:00
5:56 PM,82.0,12.9,7,29.80,10.0,SE,10.4,-,N/A,,Clear,130,2013-03-26 00:56:00
6:56 PM,79.0,12.9,8,29.81,10.0,Calm,Calm,-,N/A,,Clear,0,2013-03-26 01:56:00
7:56 PM,75.9,14.0,10,29.80,10.0,South,6.9,-,N/A,,Clear,180,2013-03-26 02:56:00
8:56 PM,73.9,14.0,10,29.81,10.0,SW,5.8,-,N/A,,Clear,220,2013-03-26 03:56:00
9:56 PM,73.0,14.0,11,29.82,10.0,South,3.5,-,N/A,,Clear,180,2013-03-26 04:56:00
10:56 PM,68.0,16.0,14,29.82,10.0,Calm,Calm,-,N/A,,Clear,0,2013-03-26 05:56:00
11:56 PM,66.9,16.0,14,29.82,10.0,Calm,Calm,-,N/A,,Clear,0,2013-03-26 06:56:00